     2              OBSERVATION DATA    GPS                 RINEX VERSION / TYPE
ASRINEXO-V1.3 SDCO 01-MAY-1991                              PGM / RUN BY / DATE
                                                            COMMENT
Original Marker Name: S554                                  COMMENT
Campaign Name: San Diego County HPGN                        COMMENT
4-Character Station Name: S554                              COMMENT
6-Character Antenna Code: ASHL12                            COMMENT
Vertical Measurement Point: BAS                             COMMENT
Vertical Offset to Rinex Ref. Point: 0.0000                 COMMENT
Radial Measurement Point: RRP                               COMMENT
Radial Offset to Rinex Ref. Point: 0.0000                   COMMENT
Antenna Height from Field Measurement: 1.3420 m             COMMENT
Additional Antenna Identification Info.:                    COMMENT
Original Ashtech L1/L2                                      COMMENT
The antenna height given is the average of the              COMMENT
calculated vertical heights obtained from the               COMMENT
height rod and tape measure methods.                        COMMENT
Original XYZ: 6378137.0000 0.0000 0.0000                    COMMENT
New XYZ position is based on association with SCEC monument COMMENT
E1C8S7J1+0011. Position of that monument is believed to be  COMMENT
valid to within 1 m horizontally; vertical accuracy         COMMENT
should be no worse than 3-times this value.                 COMMENT
                                                            COMMENT
Revised Rinex header created by UCSD GPS archive for        COMMENT
GSAC on 10-Apr-1999 (1999:100) 04:13:01 GMT                 COMMENT
For assistance contact dagnew@ucsd.edu or hjohnson@ucsd.edu COMMENT
                                                            COMMENT
LOMAX ESCONDIDO                                             MARKER NAME
RWS SAN DIEGO COUNTY                                        OBSERVER / AGENCY
553 ASHTECH L-XII3 5F                                       REC # / TYPE / VERS
635 ASHTECH GEODETIC L                                      ANT # / TYPE
 -2436061.0000 -4761584.0000  3463518.0000                  APPROX POSITION XYZ
        1.3420        0.0000        0.0000                  ANTENNA: DELTA H/E/N
     1     2     0                                          WAVELENGTH FACT L1/2
     3    C1    L1    L2                                    # / TYPES OF OBSERV
    15                                                      INTERVAL
  1991     4     7    20    34   15.000000                  TIME OF FIRST OBS
  1991     4     8     3    30   15.000000                  TIME OF LAST OBS
     0                                                      # OF SATELLITES
                                                            END OF HEADER
 91  4  7 20 34 15.0000000  0  3 19 18 11
  30255732.692            .910 6          .035 9
  29600004.744            .820 7          .083 9
  33499150.123            .976 4          .082 4
 91  4  7 20 34 29.9990000  0  3 19 18 11
  30255020.384       -3756.643 6     -2928.008 9
  29601542.680        8080.970 7      6296.303 9
  33492663.813      -34146.899 4    -26608.448 2
 91  4  7 20 34 44.9990000  0  3 19 18 11
  30254306.880       -7472.104 6     -5823.149 9
  29603103.397       16271.247 7     12678.326 9
  33486177.501      -68239.146 4    -53173.622 3
 91  4  7 20 34 59.9990000  0  3 19 18 11
  30253614.359      -11121.940 6     -8667.168 9
  29604684.204       24594.506 7     19163.969 9
  33479710.080     -102249.720 4    -79675.152 4
 91  4  7 20 35 14.9990000  0  3 19 18 11
  30252928.134      -14712.880 6    -11465.286 9
  29606294.091       33043.821 7     25747.838
  33473245.655     -136185.043 4   -106118.086 2
 91  4  7 20 35 29.9990000  0  3 19 18 11
  30252264.991      -18238.184 6    -14212.257 9
  29607925.861       41626.254 7     32435.433 9
  33466805.814     -170037.858 4   -132496.677 3
 91  4  7 20 35 44.9990000  0  3 19 18 11
  29951809.694      -21700.595 6    -16910.222 9
  29309792.752       50340.135 7     39225.463 9
  33160581.606     -203812.243 4   -158814.186 1
 91  4  7 20 35 59.9990000  0  3 19 18 11
  29951156.445      -25110.229 6    -19567.063 9
  29311473.391       59173.697 7     46108.747 9
  33154170.845     -237514.070 4   -185075.147 4
 91  4  7 20 36 14.9990000  0  3 19 18 11
  29350934.772      -28457.076 6    -22174.985 9
  28713594.594       68139.614 7     53095.162 9
  32548183.263     -271138.793 4   -211276.078 3
 91  4  7 20 36 29.9990000  0  3 19 18 11
  29350311.804      -31757.632 6    -24746.828 9
  28715320.795       77218.368 7     60169.501 9
  32541805.178     -304694.363 4   -237423.113 5
 91  4  7 20 36 44.9990000  0  3 19 18 11
  29949274.648      -35007.625 6    -27279.271 9
  29316656.503       86414.468 7     67335.283 9
  33135008.709     -338175.949 4   -263512.477 3
 91  4  7 20 36 59.9990000  0  3 19 18 11
  29948669.366      -38188.556 6    -29757.908 9
  29318432.773       95749.469 7     74609.298 9
  33128653.409     -371572.914 4   -289535.960
 91  4  7 20 37 14.9990000  0  3 19 18 11
  29348491.463      -41312.877 6    -32192.428 9
  28720649.010      105211.252 7     81982.103 9
  32522737.779     -404897.049 4   -315502.577 5
 91  4  7 20 37 29.9990000  0  3 19 18 11
  29347908.966      -44368.859 6    -34573.690 9
  28722474.743      114808.304 7     89460.312 9
  32516405.261     -438128.100 4   -341396.752 3
 91  4  7 20 37 44.9990000  0  3 19 18 11
  29946927.275      -47344.810 6    -36892.600 9
  29323914.175      124552.518 7     97053.192 9
  33109688.539     -471254.038 4   -367209.000 3
 91  4  7 20 37 59.9990000  0  3 19 18 11
  29946375.356      -50248.244 6    -39155.000 9
  29325797.472      134439.717 7    104757.486 9
  33103405.488     -504289.966 4   -392951.106 5
 91  4  7 20 38 14.9990000  0  3 19 18 11
  29346250.213      -53111.521 6    -41386.109 9
  28728112.341      144437.690 7    112548.098 9
  32497546.815     -537267.942 4   -418648.072 4
 91  4  7 20 38 29.9990000  0  3 19 18 11
  29345707.891      -55924.636 6    -43578.132 9
  28730038.510      154553.056 7    120430.184 9
  32491278.156     -570169.420 4   -444285.433 5
 91  4  7 20 38 44.9990000  0  3 19 18 11
  20651203.471       70363.919 6     54828.392 9
  20038009.477      -67191.510 7    -52357.622 9
  23791041.103       82538.678 4     64318.365 2
 91  4  7 20 38 59.9990000  0  3 19 18 11
  20650695.922       67676.969 6     52734.675 9
  20039985.705      -56811.350 7    -44269.200 9
  23784813.818       49809.969 4     38815.676 5
 91  4  7 20 39 14.9990000  0  3 19 18 11
  20650193.470       65056.380 6     50692.669 9
  20041986.521      -46295.335 7    -36074.916 9
  23778607.212       17171.413 4     13383.140 5
 91  4  7 20 39 29.9990000  0  3 19 18 11
  20649708.702       62517.701 6     48714.491 9
  20044015.218      -35627.797 7    -27762.565 9
  23772413.803      -15360.957 4    -11966.595 5
 91  4  7 20 39 44.9990000  0  4 19 18 11 14
  20649239.828       60046.169 6     46788.638 9
  20046071.791      -24823.599 7    -19343.718 9
  23766238.376      -47801.466 4    -37244.794 3
  23792357.792            .106 4          .079 3
 91  4  7 20 39 59.9990000  0  4 19 18 11 14
  20648776.350       57629.624 6     44905.632 9
  20048152.054      -13894.402 7    -10827.477 9
  23760083.636      -80161.701 4    -62460.386 1
  23803513.969       58676.542 4     45722.178 4
 91  4  7 20 40 14.9990000  0  4 19 18 11 14
  20648323.661       55238.838 6     43042.694 9
  20050248.802       -2869.526 7     -2236.685 9
  23753928.298     -112470.498 4    -87635.939 5
  23814681.838      117332.939 4     91428.677 4
 91  4  7 20 40 29.9990000  0  4 19 18 11 14
  20647880.871       52905.381 6     41224.423 9
  20052374.029        8282.774 7      6453.401 9
  23747798.442     -144695.920 4   -112746.459 5
  23825846.409      176000.507 3    137143.903 3
 91  4  7 20 40 44.9990000  0  4 19 18 11 14
  20647448.869       50628.632 6     39450.346 9
  20054519.346       19561.821 7     15242.252 9
  23741682.377     -176838.186 4   -137792.276 5
  23837019.076      234678.213 4    182866.960 2
 91  4  7 20 40 59.9990000  0  4 19 18 11 14
  20647028.859       48411.715 6     37722.887 9
  20056687.745       30970.972 7     24132.479 9
  23735591.492     -208893.532 4   -162770.339 4
  23848184.847      293368.927 4    228600.224 5
 91  4  7 20 41 14.9990000  0  4 19 18 11 14
  20646617.846       46260.073 6     36046.297 9
  20058886.123       42515.675 7     33128.342 9
  23729499.411     -240856.152 4   -187676.109 5
  23859356.310      352077.872 4    274347.689 5
 91  4  7 20 41 29.9990000  0  4 19 18 11 14
  20646219.418       44169.101 6     34416.978 9
  20061107.584       54191.562 7     42226.416 9
  23723434.610     -272730.238 4   -212512.911 2
  23870529.275      410800.105 4    320105.484 5
 91  4  7 20 41 44.9990000  0  4 19 18 11 14
  20645829.689       42126.121 6     32825.062 9
  20063353.627       65985.999 7     51416.868 9
  23717383.599     -304528.216 4   -237290.442 4
  23881701.942      469522.563 4    365862.999 5
 91  4  7 20 41 59.9990000  0  4 19 18 11 14
  20645451.050       40137.433 6     31275.449 9
  20065617.963       77905.357 7     60704.667 9
  23711345.775     -336242.991 4   -262003.139 2
  23892882.703      528251.331 3    411625.851 4
 91  4  7 20 42 14.9990000  0  4 19 18 11 14
  20645085.307       38219.327 6     29780.836 9
  20067915.271       89965.883 8     70102.458 9
  23705333.438     -367857.916 4   -286638.016 5
  23904062.263      587002.379 4    457406.103 1
 91  4  7 20 42 29.9990000  0  4 19 18 11 14
  20644734.548       36361.152 6     28332.917 9
  20070234.165      102157.370 8     79602.302 9
  23699333.691     -399383.361 4   -311203.131 5
  23915246.618      645764.674 4    503195.153 5
 91  4  7 20 42 44.9990000  0  4 19 18 11 14
  20644392.184       34582.329 6     26946.831 9
  20072582.742      114499.291 8     89219.365 9
  23693347.136     -430799.297 4   -335682.963 5
  23926432.474      704557.212 3    549007.699 2
 91  4  7 20 42 59.9990000  0  4 19 18 11 14
  20644074.703       32869.732 6     25612.356 9
  20074962.193      126978.675 8     98943.541 9
  23687394.160     -462118.385 4   -360087.312 4
  23937621.627      763366.571 3    594833.417 3
 91  4  7 20 43 14.9990000  0  4 19 18 11 14
  20643753.327       31215.664 6     24323.489 9
  20077360.533      139587.742 7    108768.771 9
  23681451.672     -493348.029 4   -384421.930 4
  23948826.674      822184.911 4    640666.105 4
 91  4  7 20 43 29.9990000  0  4 19 18 11 14
  20643448.738       29614.897 6     23076.150 9
  20079781.655      152321.641 7    118691.266 9
  23675524.474     -524492.810 4   -408690.458 2
  23960005.934      881006.775 3    686501.563 3
 91  4  7 20 43 44.9990000  0  4 19 18 11 14
  20643157.341       28076.666 6     21877.541 9
  20082230.361      165189.428 7    128718.093 9
  23669608.672     -555543.290 4   -432885.537 3
  23971204.982      939840.734 3    732346.404 5
 91  4  7 20 43 59.9990000  0  4 19 18 11 14
  20642875.236       26584.734 6     20715.019 9
  20084702.752      178174.878 8    138836.616 9
  23663728.241     -586515.212 4   -457019.408 2
  23982400.732      998670.430 4    778187.963 5
 91  4  7 20 44 14.9990000  0  4 19 18 11 14
  20642599.724       25142.382 6     19591.123 9
  20087197.321      191281.259 8    149049.362 9
  23657846.915     -617404.769 4   -481088.967 4
  23993597.079     1057498.928 3    824028.564 2
 91  4  7 20 44 29.9990000  0  4 19 18 11 14
  20642340.405       23764.573 6     18517.515 9
  20089717.076      204523.989 8    159368.354 9
  23651987.769     -648196.606 4   -505082.468 3
  24004801.820     1116340.777 4    869879.592 5
 91  4  7 20 44 44.9990000  0  4 19 18 11 14
  20642087.682       22444.241 6     17488.699 9
  20092260.520      217896.123 7    169788.184 9
  23646148.411     -678897.372 4   -529005.039 2
  24016003.866     1175188.708 4    915735.333 4
 91  4  7 20 44 59.9990000  0  4 19 18 11 14
  20641840.652       21164.938 6     16491.856 9
  20094827.041      231381.044 8    180295.893 9
  23640314.751     -709523.136 4   -552869.141 5
  24027187.924     1234025.932 3    961582.749 5
 91  4  7 20 45 14.9990000  0  4 19 18 11 14
  20641606.213       19940.084 6     15537.442 9
  20097418.446      244992.426 8    190902.144 9
  23634503.275     -740059.887 4   -576663.859 5
  24038385.471     1292865.356 3   1007431.835 4
 91  4  7 20 45 29.9990000  0  4 19 18 11 14
  20641387.666       18772.800 6     14627.881 9
  20100030.539      258733.181 7    201609.210 9
  23628710.684     -770504.126 4   -600386.534 4
  24049581.221     1351709.856 3   1053284.463 2
 91  4  7 20 45 44.9990000  0  4 19 18 11 14
  20641173.312       17679.789 6     13776.196 9
  20102675.307      272620.194 7    212430.236 9
  23622933.082     -800838.883 4   -624023.838 3
  24060768.578     1410575.728 3   1099154.202 5
 91  4  7 20 45 59.9990000  0  4 19 18 11 14
  20640982.045       16651.850 6     12975.213 9
  20105342.263      286644.398 7    223358.166 9
  23617190.560     -831072.883 4   -647582.684 5
  24071993.107     1469453.535 3   1145033.229 3
 91  4  7 20 46 14.9990000  0  5 19 18  2 11 14
  20640797.971       15680.605 6     12218.408 9
  20108036.498      300797.498 7    234386.531 9
  23920899.206            .193 4          .407 6
  23611449.234     -861213.942 4   -671068.994 2
  24083188.255     1528334.412 3   1190914.676 5
 91  4  7 20 46 29.9990000  0  5 19 18  2 11 14
  20640623.792       14763.664 6     11503.944 9
  20110752.315      315077.655 7    245513.906 9
  23912566.474      -43770.376 4    -34106.775 5
  23605728.594     -891263.922 4   -694484.423 4
  24094403.192     1587215.960 3   1236796.153 5
 91  4  7 20 46 44.9990000  0  5 19 18  2 11 14
  20640457.107       13904.488 6     10834.450 9
  20113497.216      329488.174 7    256742.863 9
  23904264.022      -87484.845 4    -68169.776 5
  23600028.939     -921219.075 4   -717825.959 4
  24105607.933     1646101.549 3   1282681.254 5
 91  4  7 20 46 59.9990000  0  5 19 18  2 11 14
  20640310.513       13102.618 6     10209.634 9
  20116262.203      344028.387 8    268072.880 9
  23895944.483     -131143.313 4   -102189.129 5
  23594350.572     -951079.222 4   -741093.450 3
  24116815.976     1704990.152 3   1328568.629 3
 91  4  7 20 47 14.9990000  0  5 19 18  2 11 14
  20640164.210       12354.421 6      9626.630 9
  20119053.270      358694.791 8    279501.232 9
  23887639.632     -174749.372 4   -136167.650 2
  23588682.694     -980847.747 4   -764289.534 3
  24128024.618     1763877.584 4   1374454.748 5
 91  4  7 20 47 29.9990000  0  5 19 18  2 11 14
  20640034.703       11662.434 6      9087.432 9
  20121868.618      373490.127 8    291030.041 9
  23879358.762     -218300.222 4   -170103.188 5
  23583034.307    -1010521.637 4   -787411.906 5
  24139231.758     1822766.462 3   1420342.391 4
 91  4  7 20 47 44.9990000  0  5 19 18  2 11 14
  20639911.788       11031.837 6      8596.065 9
  20124710.953      388419.845 8    302663.569 9
  23871079.096     -261790.281 4   -203991.316 6
  23577408.998    -1040095.169 4   -810456.065 5
  24150434.105     1881661.484 4   1466234.860 4
 91  4  7 20 47 59.9990000  0  5 19 18  2 11 14
  20639804.461       10453.567 6      8145.473 9
  20127574.272      403474.813 7    314394.691 9
  23862817.116     -305228.413 4   -237838.983 5
  23571796.284    -1069577.047 4   -833428.782 5
  24161638.545     1940553.357 4   1512124.856 5
 91  4  7 20 48 14.9990000  0  5 19 18  2 11 14
  20639703.729        9927.352 6      7735.447 9
  20130465.167      418654.561 7    326223.055 9
  23854562.631     -348614.883 4   -271646.380 5
  23566201.556    -1098967.232 4   -856330.052 4
  24172841.790     1999441.457 3   1558011.893 4
 91  4  7 20 48 29.9990000  0  5 19 18  2 11 14
  20639618.289        9469.813 6      7378.937 9
  20133378.254      433976.018 7    338161.830 9
  23846315.937     -391932.908 4   -305400.495 5
  23560627.817    -1128248.613 4   -879146.531 4
  24184057.027     2058342.089 4   1603908.261 3
 91  4  7 20 48 44.9990000  0  5 19 18  2 11 14
  20639538.244        9066.983 6      7065.057 9
  20136317.416      449425.394 7    350200.291 9
  23838081.541     -435196.065 4   -339111.815 1
  23555078.059    -1157434.758 4   -901888.813 3
  24195261.768     2117240.924 4   1649803.240 5
 91  4  7 20 48 59.9990000  0  5 19 18  2 11 14
  20639479.485        8716.819 6      6792.207 9
  20139282.666      465000.686 7    362336.863 9
  23829860.033     -478406.205 4   -372781.827 4
  23549543.591    -1186527.206 4   -924558.127 6
  24206471.910     2176135.479 4   1695695.301 5
 91  4  7 20 49 14.9990000  0  5 19 18  2 11 14
  20639415.329        8414.974 6      6557.017 9
  20142268.298      480697.537 7    374568.158 9
  23821650.512     -521567.409 4   -406413.719 5
  23544022.613    -1215529.848 4   -947157.445 5
  24217675.452     2235021.311 4   1741580.599 5
 91  4  7 20 49 29.9990000  0  5 19 18  2 11 14
  20639370.661        8164.954 6      6362.204 9
  20145280.314      496519.396 7    386896.854 9
  23813437.999     -564676.071 4   -440004.702 4
  23538527.417    -1244438.813 4   -969683.713 3
  24228873.898     2293901.618 3   1787461.116 4
 91  4  7 20 49 44.9990000  0  5 19 18  2 11 14
  20639332.589        7979.276 6      6217.534 9
  20148316.011      512479.016 7    399332.910 9
  23805257.263     -607719.494 4   -473544.809 5
  23533042.413    -1273241.103 4   -992126.892 5
  24240083.438     2352788.686 3   1833347.346 5
 91  4  7 20 49 59.9990000  0  5 19 18  2 11 14
  20639308.905        7853.706 6      6119.697 9
  20151378.991      528572.317 7    411873.132 9
  23797070.533     -650701.636 4   -507037.201 3
  23527579.295    -1301940.499 4  -1014489.915 4
  24251295.979     2411677.860 4   1879234.777 6
 91  4  7 20 50 14.9990000  0  5 19 18  2 11 14
  20639294.814        7776.580 6      6059.604 9
  20154464.155      544787.568 7    424508.370 9
  23788908.080     -693633.980 4   -540491.221 4
  23522135.067    -1330548.409 4  -1036781.665 4
  24262492.628     2470557.063 3   1925114.458 3
 91  4  7 20 50 29.9990000  0  5 19 18  2 11 14
  20639287.018        7750.052 6      6038.938 9
  20157576.301      561127.046 7    437240.408 9
  23780748.629     -736514.067 4   -573904.057 4
  23516712.717    -1359062.266 4  -1059000.088 2
  24273694.970     2529428.262 3   1970988.361 4
 91  4  7 20 50 44.9990000  0  5 19 18  2 11 14
  20639294.513        7793.208 6      6072.591 9
  20160710.329      577609.592 7    450083.932 9
  23772592.179     -779322.742 4   -607261.310 5
  23511303.865    -1387462.559 4  -1081130.034 6
  24284900.915     2588310.235 4   2016870.631 4
 91  4  7 20 50 59.9990000  0  5 19 18  2 11 14
  20639315.798        7894.635 6      6151.627 9
  20163871.044      594223.868 7    463030.102 9
  23764461.206     -822071.143 4   -640571.561 5
  23505916.293    -1415760.395 4  -1103180.141 5
  24296107.754     2647191.249 3   2062751.723 5
 91  4  7 20 51 14.9990000  0  5 19 18  2 11 14
  20639345.481        8052.199 6      6274.415 9
  20167059.334      610967.878 7    476077.358 9
  23756332.934     -864761.317 4   -673836.462 4
  23500550.905    -1443957.314 4  -1125151.630 2
  24307319.092     2706068.578 4   2108629.958 6
 91  4  7 20 51 29.9990000  0  5 19 18  2 11 14
  20639385.651        8253.317 6      6431.140 9
  20170268.014      627829.258 7    489216.078 9
  23748225.048     -907405.643 4   -707065.586 5
  23495209.804    -1472065.531 4  -1147053.979 5
  24318517.241     2764929.269 3   2154495.672 5
 91  4  7 20 51 44.9990000  0  5 19 18  2 11 14
  20639429.119        8516.255 6      6636.037 9
  20173503.673      644826.229 7    502460.442 9
  23740126.751     -949985.757 4   -740244.694 5
  23489877.096    -1500066.456 4  -1168872.777 5
  24329715.391     2823791.472 3   2200362.089 5
 91  4  7 20 51 59.9990000  0  5 19 18  2 11 14
  20639492.377        8833.331 6      6883.115 9
  20176761.519      661951.140 7    515804.511 9
  23732033.257     -992508.933 4   -773379.449 3
  23484561.175    -1527967.215 4  -1190613.433 2
  24340907.240     2882647.273 3   2246223.539 2
 91  4  7 20 52 14.9990000  0  5 19 18  2 11 14
  20639566.427        9210.922 6      7177.345 9
  20180043.945      679210.380 7    529253.243 9
  23723946.652    -1034968.515 4   -806464.674 5
  23479277.035    -1555761.114 4  -1212270.895 5
  24352118.281     2941502.943 3   2292085.327 1
 91  4  7 20 52 29.9990000  0  5 19 18  2 11 14
  20639652.766        9648.669 6      7518.468 9
  20183357.850      696603.934 7    542806.641 9
  23715879.538    -1077364.794 4   -839500.570 5
  23474011.480    -1583448.057 5  -1233845.008 5
  24363317.927     3000357.628 3   2337945.956 2
 91  4  7 20 52 44.9990000  0  5 19 18  2 11 14
  20639743.904       10140.535 6      7901.747 9
  20186688.848      714125.524 7    556459.809 9
  23707826.812    -1119703.606 4   -872491.664 4
  23468759.715    -1611033.753 4  -1255340.193 5
  24374511.875     3059205.058 3   2383801.343 3
 91  4  7 20 52 59.9990000  0  5 19 18  2 11 14
  20639848.230       10679.486 6      8321.715 9
  20190047.422      731768.328 7    570207.426 9
  23699780.984    -1161991.620 4   -905443.142 3
  23463530.735    -1638524.609 5  -1276761.520 5
  24385716.019     3118037.847 3   2429645.319 5
 91  4  7 20 53 14.9990000  0  5 19 18  2 11 14
  20639956.456       11263.361 6      8776.697 9
  20193426.983      749530.259 7    584047.866 9
  23691742.048    -1204230.998 4   -938356.794 5
  23458325.139    -1665922.514 5  -1298110.405 4
  24396911.171     3176853.436 3   2475475.426 2
 91  4  7 20 53 29.9990000  0  5 19 18  2 11 14
  20640079.969       11915.189 6      9284.633 9
  20196832.324      767434.289 7    597999.035 9
  23683710.908    -1246398.473 4   -971214.369 4
  23453121.942    -1693204.103 4  -1319368.637 3
  24408101.223     3235674.398 3   2521309.742 5
 91  4  7 20 53 44.9990000  0  4 19 18  2 11
  20640216.076       12635.997 6      9846.308 9
  20200267.944      785481.374 7    612061.675 9
  23675701.354    -1288492.729 4  -1004014.901 4
  23447952.621    -1720367.835 5  -1340535.056 3
 91  4  7 20 53 59.9990000  0  4 19 18  2 11
  20640367.470       13413.574 6     10452.223 9
  20203726.050      803659.467 7    626226.402 9
  23667703.191    -1330525.769 4  -1036767.782 6
  23442810.281    -1747425.482 4  -1361618.824 5
 91  4  7 20 54 14.9990000  0  4 19 18  2 11
  20640519.767       14232.448 6     11090.324 9
  20207209.039      821953.245 7    640481.277 9
  23659715.519    -1372513.019 4  -1069484.974 4
  23437667.340    -1774392.286 4  -1382631.776 4
 91  4  7 20 54 29.9990000  0  4 19 18  2 11
  20640687.350       15093.678 6     11761.424 9
  20210713.915      840363.834 7    654827.169 9
  23651732.647    -1414453.175 4  -1102165.417 3
  23432555.578    -1801266.693 4  -1403572.750 4
 91  4  7 20 54 44.9990000  0  4 19 18  2 11
  20640862.127       16025.097 6     12487.214 9
  20214241.272      858918.820 7    669285.575 9
  23643769.859    -1456318.189 4  -1134787.338 5
  23427472.299    -1828020.387 5  -1424419.644 6
 91  4  7 20 54 59.9990000  0  4 19 18  2 11
  20641053.394       17017.366 6     13260.423 9
  20217799.807      877608.994 7    683849.324 9
  23635814.266    -1498117.308 4  -1167357.909 5
  23422398.312    -1854662.436 5  -1445179.501 4
 91  4  7 20 55 14.9990000  0  4 19 18  2 11
  20641245.862       18059.533 6     14072.518 9
  20221380.531      896423.632 7    698510.053 9
  23627875.464    -1539861.142 4  -1199885.423 6
  23417348.307    -1881203.301 4  -1465860.657 4
 91  4  7 20 55 29.9990000  0  4 19 18  2 11
  20641462.611       19160.205 6     14930.194 9
  20224986.732      915371.470 7    713274.578 9
  23619935.458    -1581540.940 4  -1232362.960 3
  23412318.089    -1907633.985 5  -1486455.823 5
 91  4  7 20 55 44.9990000  0  4 19 18  2 11
  20641675.464       20313.780 6     15829.096 9
  20228614.523      934446.660 7    728138.338 9
  23612016.741    -1623162.009 4  -1264794.841 5
  23407310.056    -1933959.776 5  -1506969.303 5
 91  4  7 20 55 59.9990000  0  4 19 18  2 11
  20641905.707       21513.145 6     16763.676 9
  20232267.495      953641.863 7    743095.621 9
  23604106.719    -1664731.498 4  -1297186.466 5
  23402319.411    -1960187.341 5  -1527406.225 3
 91  4  7 20 56 14.9990000  0  4 19 18  2 11
  20642141.943       22761.380 6     17736.348 9
  20235945.045      972960.313 7    758148.935 9
  23596207.786    -1706245.951 4  -1329535.194 4
  23397345.253    -1986313.179 5  -1547763.907 3
 91  4  7 20 56 29.9990000  0  4 19 18  2 11
  20642394.666       24055.200 6     18744.531 9
  20239644.487      992399.110 7    773296.028 9
  23588320.846    -1747708.346 4  -1361843.359 6
  23392387.585    -2012340.203 5  -1568044.553 4
 91  4  7 20 56 44.9990000  0  4 19 18  2 11
  20642649.492       25418.075 6     19806.518 9
  20243369.707     1011981.615 7    788555.098 9
  23580439.900    -1789095.026 4  -1394092.538 5
  23387459.299    -2038244.518 5  -1588229.563 3
 91  4  7 20 56 59.9990000  0  4 19 18  2 11
  20642924.402       26841.144 6     20915.415 9
  20247121.910     1031698.877 7    803919.172 9
  23572580.540    -1830414.809 4  -1426289.624 5
  23382557.092    -2064034.564 5  -1608325.597 5
 91  4  7 20 57 14.9990000  0  4 19 18  2 11
  20643201.111       28325.463 6     22072.038 9
  20250901.391     1051552.154 7    819389.232 9
  23564728.378    -1871666.368 4  -1458433.531 5
  23377669.578    -2089708.983 5  -1628331.485 5
 91  4  7 20 57 29.9990000  0  4 19 18  2 11
  20643494.008       29861.947 6     23269.311 9
  20254701.861     1071532.512 7    834958.321 9
  23556890.604    -1912858.814 4  -1490531.350 5
  23372802.747    -2115276.493 5  -1648254.113 6
 91  4  7 20 57 44.9990000  0  4 19 18  2 11
  20643796.796       31449.239 6     24506.169 9
  20258529.012     1091638.181 7    850625.051 9
  23549060.024    -1953993.183 4  -1522583.909 3
  23367962.598    -2140738.008 5  -1668094.087 5
 91  4  7 20 57 59.9990000  0  4 19 18  2 11
  20644112.178       33084.713 6     25780.578 9
  20262377.449     1111866.887 7    866387.653 9
  23541242.636    -1995071.884 4  -1554593.111 5
  23363135.039    -2166095.664 5  -1687853.173 6
 91  4  7 20 58 14.9990000  0  4 19 18  2 11
  20644434.754       34780.512 6     27101.993 9
  20266254.965     1132230.763 7    882255.579 9
  23533441.137    -2036082.755 4  -1586549.456 4
  23358331.465    -2191336.975 5  -1707521.575 5
 91  4  7 20 58 29.9990000  0  4 19 18  2 11
  20644766.626       36531.995 6     28466.793 9
  20270153.165     1152725.034 7    898225.117 9
  23525645.933    -2077030.038 4  -1618456.231 4
  23353543.178    -2216466.202 5  -1727102.671 5
 91  4  7 20 58 44.9990000  0  4 19 18  2 11
  20645110.186       38326.724 6     29865.294 9
  20274076.249     1173337.325 7    914286.614 9
  23517868.720    -2117926.044 4  -1650323.063 5
  23348780.075    -2241495.586 5  -1746605.931 5
 91  4  7 20 58 59.9990000  0  4 19 18  2 11
  20645461.843       40177.387 6     31307.384 9
  20278024.814     1194080.271 7    930449.921 9
  23510099.595    -2158757.971 4  -1682139.977 3
  23344040.356    -2266412.018 5  -1766021.209 4
 91  4  7 20 59 14.9990000  0  4 19 18  2 11
  20645822.495       42076.704 7     32787.373 9
  20281994.368     1214946.522 7    946709.310 9
  23502335.273    -2199532.892 4  -1713912.460 5
  23339320.125    -2291222.291 5  -1785353.731 3
 91  4  7 20 59 29.9990000  0  4 19 18  2 11
  20646198.735       44034.674 6     34313.069 9
  20285991.502     1235946.436 7    963072.846 9
  23494594.029    -2240240.619 4  -1745632.576 6
  23334623.276    -2315915.847 5  -1804595.375 3
 91  4  7 20 59 44.9990000  0  4 19 18  2 11
  20646577.671       46055.200 6     35887.513 9
  20290013.214     1257083.842 7    979543.523 9
  23486862.082    -2280877.176 4  -1777297.258 5
  23329950.710    -2340488.590 5  -1823742.808 5
 91  4  7 20 59 59.9990000  0  4 19 18  2 11
  20646974.297       48126.677 6     37501.656 9
  20294060.116     1278346.820 7    996112.046 9
  23479134.332    -2321454.020 4  -1808915.371 4
  23325290.739    -2364951.828 5  -1842804.922 6
 91  4  7 21  0 14.9990000  0  4 19 18  2 11
  20647374.819       50244.515 6     39151.926 9
  20298130.096     1299731.140 7   1012775.127 9
  23471429.367    -2361975.272 4  -1840490.198 2
  23320654.748    -2389309.644 5  -1861784.902 4
 91  4  7 21  0 29.9990000  0  4 19 18  2 11
  20647793.628       52419.933 6     40847.060 9
  20302223.764     1321247.940 7   1029541.444 9
  23463726.802    -2402429.771 4  -1872013.026 5
  23316041.242    -2413550.482 5  -1880673.708 4
 91  4  7 21  0 44.9990000  0  4 19 18  2 11
  20648214.240       54652.101 6     42586.423 9
  20306341.710     1342896.391 7   1046410.336 9
  23456031.727    -2442818.092 4  -1903484.234 5
  23311459.814    -2437674.853 5  -1899471.800 5
 91  4  7 21  0 59.9990000  0  4 19 18  2 11
  20648653.435       56942.749 6     44371.343 9
  20310488.440     1364677.867 7   1063382.889 9
  23448374.126    -2483138.392 5  -1934902.491 3
  23306883.782    -2461680.694 5  -1918177.527 5
 91  4  7 21  1 14.9990000  0  4 19 18  2 11
  20649097.129       59287.633 6     46198.532 9
  20314657.655     1386588.559 7   1080456.123 9
  23440703.940    -2523394.692 4  -1966270.876 5
  23302333.232    -2485571.815 5  -1936793.817 5
 91  4  7 21  1 29.9990000  0  4 19 18  2 11
  20649557.610       61677.428 6     48060.709 9
  20318849.355     1408619.278 7   1097622.889 9
  23433052.634    -2563596.066 4  -1997596.444 5
  23297814.158    -2509357.150 5  -1955327.706 3
 91  4  7 21  1 44.9990000  0  4 19 18  2 11
  20650015.390       64122.484 6     49965.955 9
  20323067.434     1430780.076 7   1114891.011 9
  23425416.620    -2603731.868 4  -2028870.936 6
  23293308.878    -2533025.853 5  -1973770.748 5
 91  4  7 21  1 59.9990000  0  4 19 18  2 11
  20650496.859       66637.564 7     51925.762 9
  20327312.195     1453085.669 7   1132271.967 9
  23417794.400    -2643787.313 5  -2060082.792 4
  23288822.785    -2556562.882 5  -1992111.148 2
 91  4  7 21  2 14.9990000  0  4 19 18  2 11
  20650989.117       69222.993 7     53940.391 9
  20331584.838     1475536.623 7   1149766.191 9
  23410190.764    -2683761.890 4  -2091231.676 4
  23284373.263    -2579967.523 5  -2010348.409 4
 91  4  7 21  2 29.9990000  0  5 19 18  2 11 16
  20651491.268       71870.191 7     56003.141 9
  20335882.364     1498124.076 7   1167366.778 9
  23402598.519    -2723664.170 5  -2122324.209 6
  23279943.831    -2603248.091 5  -2028488.990 4
  24452985.552            .567 4          .025 5
 91  4  7 21  2 44.9990000  0  5 19 18  2 11 16
  20652007.511       74568.678 7     58105.862 9
  20340205.071     1520837.661 7   1185065.651 9
  23395017.368    -2763504.417 5  -2153368.384 5
  23275537.480    -2626414.639 5  -2046540.711 5
  24447765.263      -27462.344 4    -21399.618 5
 91  4  7 21  2 59.9990000  0  5 19 18  2 11 16
  20652525.556       77302.505 7     60236.130 9
  20344549.363     1543661.333 7   1202850.304 9
  23387444.008    -2803298.257 5  -2184376.432 4
  23271142.224    -2649482.591 5  -2064515.621 3
  24442553.371      -54824.002 4    -42720.389 2
 91  4  7 21  3 14.9990000  0  5 19 18  2 11 16
  20653054.389       80083.466 7     62403.122 9
  20348916.437     1566607.103 7   1220730.089 9
  23379885.341    -2843033.721 5  -2215338.957 4
  23266776.346    -2672439.968 5  -2082404.352 6
  24437368.763      -82072.309 4    -63952.840 4
 91  4  7 21  3 29.9990000  0  5 19 18  2 11 16
  20653593.714       82927.896 7     64619.556 9
  20353308.998     1589691.309 7   1238717.752 9
  23372337.769    -2882694.369 5  -2246243.208 5
  23262429.056    -2695270.039 5  -2100193.948 6
  24432210.235     -109190.688 4    -85084.015 6
 91  4  7 21  3 44.9990000  0  5 19 18  2 11 16
  20654143.235       85806.578 7     66862.697 9
  20357722.240     1612884.349 8   1256790.216 9
  23364795.890    -2922309.458 5  -2277111.966 6
  23258107.845    -2718001.833 5  -2117906.938 5
  24427060.998     -136208.520 4   -106136.821 4
 91  4  7 21  3 59.9990000  0  5 19 18  2 11 16
  20654705.943       88740.928 6     69149.213 9
  20362160.372     1636207.956 8   1274964.424 9
  23357266.901    -2961857.178 5  -2307928.232 5
  23253800.730    -2740613.479 5  -2135526.279 5
  24421943.539     -163103.943 4   -127094.301 5
 91  4  7 21  4 14.9990000  0  5 19 18  2 11 16
  20655271.055       91732.801 7     71480.547 9
  20366624.578     1659664.017 8   1293241.843 9
  23349762.797    -3001335.643 5  -2338690.517 3
  23249529.584    -2763102.761 5  -2153050.275 3
  24416850.064     -189874.991 4   -147954.836 5
 91  4  7 21  4 29.9990000  0  5 19 18  2 11 16
  20655850.254       94773.030 7     73849.563 9
  20371112.172     1683243.227 8   1311615.218 9
  23342260.190    -3040753.807 5  -2369405.844 4
  23245267.434    -2785478.494 5  -2170485.807 2
  24411785.073     -216530.523 4   -168725.367 4
 91  4  7 21  4 44.9990000  0  5 19 18  2 11 16
  20656441.145       97875.553 7     76267.127 9
  20375621.649     1706959.310 7   1330095.258 9
  23334769.274    -3080097.788 5  -2400063.317 3
  23241032.266    -2807726.493 5  -2187821.826 5
  24406731.172     -243056.402 4   -189394.847 5
 91  4  7 21  4 59.9990000  0  5 19 18  2 11 16
  20657040.730      101023.384 7     78719.985 9
  20380158.409     1730795.502 7   1348668.877 9
  23327299.346    -3119384.133 5  -2430675.924 5
  23236817.485    -2829863.243 5  -2205071.171 6
  24401699.755     -269469.341 4   -209976.336 4
 91  4  7 21  5 14.9990000  0  5 19 18  2 11 16
  20657650.506      104233.761 7     81221.584 9
  20384721.850     1754768.950 7   1367349.450 9
  23319835.116    -3158595.265 5  -2461229.883 5
  23232630.885    -2851871.003 5  -2222219.973 5
  24396701.314     -295751.850 4   -230456.206 3
 91  4  7 21  5 29.9990000  0  5 19 18  2 11 16
  20658270.477      107491.426 7     83760.032 9
  20389305.979     1778864.109 7   1386124.868 9
  23312374.179    -3197746.651 4  -2491737.316 5
  23228470.064    -2873764.780 5  -2239279.949 5
  24391731.357     -321919.151 4   -250846.275 5
 91  4  7 21  5 44.9990000  0  5 19 18  2 11 16
  20658904.239      110805.715 7     86342.605 9
  20393917.683     1803090.499 7   1405002.535 9
  23304942.925    -3236828.692 5  -2522190.734 3
  23224323.635    -2895535.090 5  -2256243.751 5
  24386774.889     -347961.342 4   -271138.874 3
 91  4  7 21  5 59.9990000  0  5 19 18  2 11 16
  20659546.394      114181.967 7     88973.463 9
  20398552.177     1827453.424 7   1423986.597 9
  23297529.654    -3275835.903 5  -2552585.808 5
  23220206.286    -2917176.054 5  -2273106.781 3
  24381845.098     -373873.012 4   -291329.766 4
 91  4  7 21  6 14.9990000  0  5 19 18  2 11 16
  20660192.745      117595.262 7     91633.173 9
  20403210.351     1851928.263 7   1443057.869 9
  23290105.297    -3314792.887 5  -2582941.740 6
  23216107.824    -2938712.357 5  -2289888.186 5
  24376934.798     -399678.672 4   -311438.048 2
 91  4  7 21  6 29.9990000  0  5 19 18  2 11 16
  20660851.988      121053.493 7     94327.910 9
  20407889.810     1876522.462 7   1462222.142 9
  23282700.721    -3353691.522 5  -2613252.240 5
  23212033.045    -2960135.738 5  -2306581.651 3
  24372029.294     -425370.243 4   -331457.430 4
 91  4  7 21  6 44.9990000  0  5 19 18  2 11 16
  20661520.825      124561.101 7     97061.126 9
  20412591.457     1901240.657 7   1481483.037 9
  23275312.935    -3392527.425 5  -2643513.790 4
  23207979.551    -2981441.297 5  -2323183.315 5
  24367169.958     -450943.020 4   -351384.282 4
 91  4  7 21  6 59.9990000  0  5 19 18  2 11 16
  20662197.160      128117.155 7     99832.085 9
  20417319.782     1926081.787 7   1500839.726 9
  23267937.741    -3431301.270 5  -2673727.045 5
  23203952.739    -3002629.544 5  -2339693.535 5
  24362330.711     -476397.710 4   -371219.053 5
 91  4  7 21  7 14.9990000  0  5 19 18  2 11 16
  20662878.286      131721.282 7    102640.500 9
  20422070.294     1951045.609 7   1520292.023 9
  23260572.139    -3470013.211 5  -2703892.012 5
  23199936.720    -3023700.585 5  -2356112.462 5
  24357504.950     -501734.532 4   -390961.978 4
 91  4  7 21  7 29.9990000  0  5 19 18  2 11 16
  20663575.003      135373.315 7    105486.246 9
  20426843.892     1976131.753 7   1539839.642 9
  23253214.935    -3508663.484 5  -2734008.959 5
  23195945.279    -3044654.410 5  -2372440.039 3
  24352709.769     -526953.681 4   -410613.331 2
 91  4  7 21  7 44.9990000  0  5 19 18  2 11 16
  20664280.716      139083.604 6    108377.390 9
  20431643.867     2001350.827 7   1559490.830 9
  23245872.416    -3547241.411 5  -2764069.512 5
  23191980.228    -3065480.115 5  -2388667.789 6
  24347931.978     -552044.242 4   -430164.362 3
 91  4  7 21  7 59.9990000  0  5 19 18  2 11 16
  20665000.219      142849.993 6    111312.243 9
  20436468.429     2026700.241 7   1579243.597 9
  23238543.093    -3585749.220 5  -2794075.436 6
  23188046.351    -3086179.762 5  -2404797.308 6
  24343172.772     -577008.256 4   -449616.862 2
 91  4  7 21  8 14.9990000  0  5 19 18  2 11 16
  20665723.016      146661.866 6    114282.542 9
  20441313.072     2052169.290 7   1599089.570 9
  23231222.757    -3624197.287 5  -2824034.819 5
  23184126.862    -3106763.583 5  -2420836.583 4
  24338459.734     -601856.086 4   -468978.700 1
 91  4  7 21  8 29.9990000  0  5 19 18  2 11 16
  20666454.512      150526.254 7    117293.758 9
  20446184.099     2077764.994 7   1619034.245 9
  23223924.012    -3662578.413 5  -2853942.006 5
  23180233.160    -3127224.251 5  -2436779.888 6
  24333750.893     -626580.742 4   -488244.687 5
 91  4  7 21  8 44.9990000  0  5 19 18  2 11 16
  20667202.493      154438.166 6    120342.011 9
  20451076.416     2103482.545 7   1639073.857 9
  23216630.061    -3700897.525 5  -2883800.894 5
  23176363.138    -3147566.504 5  -2452630.916 5
  24329062.142     -651186.724 4   -507418.146 5
 91  4  7 21  8 59.9990000  0  5 19 18  2 11 16
  20667961.268      158403.742 6    123432.068 9
  20455996.309     2129328.063 7   1659213.179 9
  23209346.602    -3739148.101 5  -2913606.363 5
  23172516.202    -3167783.697 5  -2468384.518 5
  24324398.571     -675667.779 4   -526494.328 4
 91  4  7 21  9 14.9990000  0  5 19 18  2 11 16
  20668719.742      162410.650 6    126554.338 9
  20460934.790     2155289.184 7   1679442.594 9
  23202086.530    -3777342.379 5  -2943367.960 5
  23168683.053    -3187887.736 5  -2484049.924 5
  24319769.172     -700035.914 4   -545482.434 3
 91  4  7 21  9 29.9990000  0  5 19 18  2 11 16
  20669493.210      166470.006 6    129717.475 9
  20465900.254     2181376.691 7   1699770.488 9
  23194829.752    -3815469.138 5  -2973076.998 5
  23164884.084    -3207867.267 5  -2499618.289 3
  24315150.270     -724280.127 4   -564374.021 5
 91  4  7 21  9 44.9990000  0  5 19 18  2 11 16
  20670272.968      170577.270 6    132917.946 9
  20470886.702     2207586.083 7   1720193.356 9
  23187582.869    -3853532.761 5  -3002736.792 5
  23161109.397    -3227726.438 5  -2515092.920 5
  24310561.949     -748404.478 3   -583172.178 5
 91  4  7 21  9 59.9990000  0  5 19 18  2 11 16
  20671065.317      174729.275 7    136153.279 9
  20475898.029     2233914.228 7   1740708.757 9
  23180358.470    -3891536.265 5  -3032349.779 5
  23157349.101    -3247468.043 5  -2530475.892 5
  24305998.507     -772411.810 4   -601879.176 2
 91  4  7 21 10 14.9990000  0  5 19 18  2 11 16
  20671860.070      178920.186 6    139418.924 9
  20480930.646     2260355.384 7   1761312.217 9
  23173135.873    -3929485.382 5  -3061920.358 5
  23153616.683    -3267097.714 5  -2545771.679 5
  24301456.054     -796307.907 3   -620499.511 2
 91  4  7 21 10 29.9990000  0  5 19 18  2 11 16
  20672668.608      183161.425 6    142723.793 9
  20485985.149     2286920.887 7   1782012.570 9
  23165923.763    -3967368.377 5  -3091439.421 3
  23149906.754    -3286603.648 5  -2560971.042 5
  24296930.087     -820080.778 4   -639023.809 2
 91  4  7 21 10 44.9990000  0  5 19 18  2 11 16
  20673485.846      187461.367 6    146074.405 9
  20491065.732     2313619.154 7   1802816.380 9
  23158729.344    -4005176.898 5  -3120900.467 6
  23146223.205    -3305977.135 5  -2576067.183 5
  24292418.207     -843722.055 3   -657445.517 2
 91  4  7 21 10 59.9990000  0  5 19 18  2 11 16
  20674306.377      191807.466 7    149460.975 9
  20496166.697     2340437.197 7   1823713.525 9
  23151546.616    -4042923.262 5  -3150313.065 6
  23142550.148    -3325230.399 5  -2591069.665 4
  24287948.002     -867244.177 4   -675774.405 1
 91  4  7 21 11 14.9990000  0  5 19 18  2 11 16
  20675150.291      196204.623 6    152887.334 9
  20501295.848     2367380.166 7   1844708.006 9
  23144378.581    -4080602.235 5  -3179673.148 6
  23138913.662    -3344358.156 5  -2605974.302 4
  24283496.085     -890642.323 4   -694006.732 5
 91  4  7 21 11 29.9990000  0  5 19 18  2 11 16
  20676000.501      200663.400 6    156361.708 9
  20506446.284     2394458.748 7   1865808.163 9
  23137216.240    -4118203.397 5  -3208972.605 6
  23135299.067    -3363349.643 5  -2620772.838 6
  24279066.954     -913905.530 4   -712133.922 4
 91  4  7 21 11 44.9990000  0  5 19 18  2 11 16
  20676854.610      205172.079 6    159874.972 9
  20511623.699     2421660.899 7   1887004.612 9
  23130080.279    -4155738.354 5  -3238220.456 6
  23131705.452    -3382216.344 5  -2635474.066 3
  24274665.398     -937045.263 3   -730164.818 5
 91  4  7 21 11 59.9990000  0  5 19 18  2 11 16
  20677733.303      209735.003 6    163430.506 9
  20516823.000     2448990.754 7   1908300.568 9
  23122953.313    -4193202.715 5  -3267413.304 6
  23128142.122    -3400953.590 5  -2650074.469 5
  24270287.828     -960056.802 3   -748095.909 3
 91  4  7 21 12 14.9990000  0  5 19 18  2 11 16
  20678599.702      214347.924 6    167024.987 9
  20522049.279     2476444.123 7   1929692.764 9
  23115833.240    -4230600.538 5  -3296554.339 5
  23124603.371    -3419565.326 5  -2664577.011 5
  24265935.442     -982944.267 3   -765930.228 2
 91  4  7 21 12 29.9990000  0  5 19 18  2 11 16
  20679486.190      219003.444 7    170652.670 9
  20527298.649     2504013.366 7   1951175.248 9
  23108724.864    -4267939.000 5  -3325649.120 6
  23121083.505    -3438058.632 5  -2678987.362 5
  24261597.144    -1005714.859 3   -783673.594 2
 91  4  7 21 12 44.9990000  0  5 19 18  2 11 16
  20680383.768      223703.234 6    174314.853 9
  20532564.802     2531700.382 7   1972749.504 9
  23101636.869    -4305216.320 5  -3354696.248 5
  23117582.529    -3456431.396 5  -2693303.718 3
  24257285.832    -1028366.536 3   -801324.233 2
 91  4  7 21 12 59.9990000  0  5 19 18  2 11 16
  20681290.342      228450.595 6    178014.097 9
  20537857.038     2559508.301 7   1994417.975 9
  23094547.077    -4342428.916 5  -3383692.929 4
  23114107.039    -3474679.936 5  -2707523.289 5
  24253013.190    -1050895.970 3   -818879.565 3
 91  4  7 21 13 14.9990000  0  5 19 18  2 11 16
  20682200.812      233260.465 7    181762.049 9
  20543172.959     2587451.999 7   2016192.251 9
  23087479.769    -4379561.848 5  -3412627.564 6
  23110663.020    -3492789.149 5  -2721634.310 3
  24248748.042    -1073288.129 3   -836328.028 1
 91  4  7 21 13 29.9990000  0  5 19 18  2 11 16
  20683123.570      238110.809 7    185541.544 9
  20548513.760     2615509.433 7   2038055.146 9
  23080423.856    -4416637.099 5  -3441517.218 6
  23107243.890    -3510780.721 5  -2735653.671 5
  24244502.378    -1095564.825 3   -853686.395 5
 91  4  7 21 13 44.9990000  0  5 19 18  2 11 16
  20684059.823      243017.293 6    189364.782 9
  20553874.650     2643695.941 7   2060018.617 9
  23073389.525    -4453638.721 5  -3470349.525 6
  23103844.243    -3528638.845 5  -2749569.012 5
  24240286.100    -1117710.216 3   -870942.528 1
 91  4  7 21 13 59.9990000  0  5 19 18  2 11 16
  20685008.067      247980.359 6    193232.113 9
  20559263.718     2672012.202 7   2082083.199 9
  23066354.596    -4490566.163 5  -3499124.053 6
  23100474.575    -3546362.792 5  -2763379.827 5
  24236092.603    -1139723.715 3   -888095.912 3
 91  4  7 21 14 14.9990000  0  5 19 18  2 11 16
  20685954.811      252992.181 7    197137.428 9
  20564677.971     2700450.292 7   2104242.705 9
  23059344.547    -4527427.104 5  -3527846.730 5
  23097117.498    -3563959.884 5  -2777091.768 6
  24231938.976    -1161613.480 3   -905152.811 5
 91  4  7 21 14 29.9990000  0  5 19 18  2 11 16
  20686917.745      258050.345 7    201078.863 9
  20570110.507     2729007.498 7   2126495.040 9
  23052343.494    -4564223.919 5  -3556519.436 6
  23093796.695    -3581432.344 5  -2790706.627 6
  24227788.350    -1183381.030 3   -922114.466 4
 91  4  7 21 14 44.9990000  0  5 19 18  2 11 16
  20687889.971      263164.178 7    205063.675 9
  20575566.431     2757693.476 7   2148847.711 9
  23045349.935    -4600947.067 5  -3585134.752 5
  23090495.982    -3598770.473 5  -2804216.775 5
  24223677.297    -1205016.831 3   -938973.522 5
 91  4  7 21 14 59.9990000  0  5 19 18  2 11 16
  20688877.186      268333.277 7    209091.538 9
  20581055.633     2786507.553 7   2171300.195 9
  23038384.559    -4637596.801 5  -3613692.863 6
  23087228.246    -3615974.330 5  -2817622.336 5
  24219588.427    -1226521.289 3   -955730.178 5
 91  4  7 21 15 14.9990000  0  5 19 18  2 11 16
  20689869.201      273561.155 7    213165.215 9
  20586561.918     2815452.972 7   2193855.035 9
  23031423.078    -4674169.629 5  -3642191.040 5
  23083973.396    -3633040.269 5  -2830920.417 5
  24215513.348    -1247890.629 3   -972381.576 4
 91  4  7 21 15 29.9990000  0  5 19 18  2 11 16
  20690876.205      278832.996 7    217273.153 9
  20592094.291     2844514.771 7   2216500.556 9
  23024470.889    -4710680.177 5  -3670640.683 6
  23080759.921    -3649982.699 5  -2844122.236 5
  24211471.847    -1269139.375 3   -988939.014 5
 91  4  7 21 15 44.9990000  0  5 19 18  2 11 16
  20691885.604      284151.166 7    221417.185 9
  20597643.448     2873695.603 7   2239238.826 9
  23017541.486    -4747125.957 5  -3699039.868 6
  23077547.646    -3666798.890 5  -2857225.687 5
  24207441.436    -1290265.098 3  -1005400.620 5
 91  4  7 21 15 59.9990000  0  5 19 18  2 11 16
  20692910.298      289518.386 7    225599.431 9
  20603219.289     2902997.826 7   2262071.684 9
  23010611.486    -4783503.999 5  -3727386.270 5
  23074378.538    -3683485.883 5  -2870228.467 4
  24203450.300    -1311265.136 3  -1021764.216 4
 91  4  7 21 16 14.9990000  0  5 19 18  2 11 16
  20693938.884      294940.536 7    229824.489 9
  20608823.309     2932427.175 7   2285003.601 9
  23003709.362    -4819808.374 5  -3755675.280 5
  23071228.621    -3700037.558 5  -2883125.810 3
  24199484.943    -1332133.092 3  -1038024.947 5
 91  4  7 21 16 29.9990000  0  5 19 18  2 11 16
  20694982.162      300403.435 6    234081.294 9
  20614442.916     2961969.798 7   2308023.790 9
  22996810.540    -4856053.106 5  -3783917.816 6
  23068100.888    -3716467.857 5  -2895928.563 5
  24195552.567    -1352883.037 3  -1054193.733 3
 91  4  7 21 16 44.9990000  0  5 19 18  2 11 16
  20696026.340      305917.602 6    238378.058 9
  20620089.209     2991635.728 7   2331140.056 9
  22989927.005    -4892227.788 5  -3812105.722 5
  23064995.936    -3732766.060 5  -2908628.405 6
  24191595.006    -1373504.568 3  -1070262.381 5
 91  4  7 21 16 59.9990000  0  5 19 18  2 11 16
  20697089.102      311491.714 6    242721.522 9
  20625758.885     3021433.674 7   2354359.178 9
  22983053.364    -4928323.519 5  -3840232.159 5
  23061922.765    -3748923.115 5  -2921218.242 5
  24187701.003    -1393988.616 3  -1086223.971 4
 91  4  7 21 17 14.9990000  0  5 19 18  2 11 16
  20698156.662      317107.711 6    247097.624 9
  20631451.944     3051345.718 7   2377667.234 9
  22976198.910    -4964358.224 5  -3868311.039 6
  23058876.271    -3764956.655 5  -2933711.822 6
  24183841.473    -1414352.917 3  -1102092.166 4
 91  4  7 21 17 29.9990000  0  5 19 18  2 11 16
  20699236.517      322791.272 6    251526.375 9
  20637171.685     3081397.232 7   2401083.954 9
  22969362.142    -5000305.961 5  -3896322.129 6
  23055856.463    -3780840.853 5  -2946089.035 4
  24179991.842    -1434571.794 3  -1117847.115 3
 91  4  7 21 17 44.9990000  0  5 19 18  2 11 16
  20700328.962      328507.655 6    255980.706 9
  20642909.112     3111553.232 7   2424582.093 9
  22962526.573    -5036201.488 5  -3924292.531 6
  23052850.143    -3796610.272 5  -2958376.843 5
  24176158.993    -1454679.853 3  -1133515.666 5
 91  4  7 21 17 59.9990000  0  5 19 18  2 11 16
  20701423.204      334274.295 6    260474.198 9
  20648668.726     3141831.312 7   2448175.359 9
  22955713.489    -5072027.016 5  -3952208.400 6
  23049872.905    -3812246.855 5  -2970561.102 6
  24172363.623    -1474659.465 3  -1149084.176 4
 91  4  7 21 18 14.9990000  0  5 19 18  2 11 16
  20702531.537      340089.654 7    265005.650 9
  20654456.518     3172229.785 7   2471862.436 9
  22948904.903    -5107784.056 5  -3980070.905 6
  23046926.545    -3827752.006 5  -2982642.955 5
  24168579.343    -1494511.841 3  -1164553.498 2
 91  4  7 21 18 29.9990000  0  5 19 18  2 11 16
  20703652.159      345979.643 7    269595.254 9
  20660266.494     3202774.451 7   2495663.427 9
  22942122.998    -5143446.542 5  -4007859.725 6
  23044000.270    -3843099.745 5  -2994602.174 5
  24164825.042    -1514211.030 3  -1179903.488 4
 91  4  7 21 18 44.9990000  0  5 19 18  2 11 16
  20704782.078      351939.700 7    274239.454 9
  20666105.551     3233460.776 7   2519574.803 9
  22935350.088    -5179019.210 5  -4035578.591 6
  23041110.871    -3858294.356 5  -3006442.041 3
  24161113.010    -1533761.353 4  -1195137.454 2
 91  4  7 21 18 59.9990000  0  5 19 18  2 11 16
  20705929.085      357947.715 7    278921.029 9
  20671967.393     3264266.548 7   2543579.250 9
  22928594.263    -5214524.100 5  -4063244.589 8
  23038243.055    -3873357.588 5  -3018179.556 5
  24157418.367    -1553185.035 4  -1210272.772 4
 91  4  7 21 19 14.9990000  0  5 19 18  2 11 16
  20707078.488      363995.647 6    283633.699 9
  20677851.122     3295183.304 7   2567670.183 9
  22921849.535    -5249968.921 5  -4090863.806 6
  23035400.126    -3888297.070 5  -3029820.589 5
  24153752.804    -1572490.062 4  -1225315.620 5
 91  4  7 21 19 29.9990000  0  5 19 18  2 11 16
  20708241.383      370090.588 6    288383.005 9
  20683756.132     3326218.141 7   2591853.123 9
  22915119.492    -5285346.601 5  -4118430.702 6
  23032585.672    -3903105.567 5  -3041359.621 5
  24150093.236    -1591668.767 4  -1240260.019 2
 91  4  7 21 19 44.9990000  0  5 19 18  2 11 16
  20709412.070      376237.833 6    293173.072 9
  20689687.225     3357376.228 7   2616132.103 9
  22908398.144    -5320651.722 5  -4145941.080 6
  23029794.606    -3917777.653 5  -3052792.331 5
  24146471.745    -1610715.777 4  -1255101.803 4
 91  4  7 21 19 59.9990000  0  5 19 18  2 11 16
  20710587.561      382415.899 7    297987.150 9
  20695635.411     3388636.189 7   2640490.464 9
  22901687.890    -5355905.569 5  -4173411.488 6
  23027020.026    -3932334.379 5  -3064135.143 5
  24142861.046    -1629652.385 4  -1269857.546 5
 91  4  7 21 20 14.9990000  0  5 19 18  2 11 16
  20711766.942      388621.292 7    302822.523 9
  20701600.681     3419994.138 7   2664925.185 9
  22894988.428    -5391111.379 5  -4200844.464 7
  23024271.830    -3946778.912 5  -3075390.553 5
  24139292.315    -1648482.094 4  -1284530.016 6
 91  4  7 21 20 29.9990000  0  5 19 18  2 11 16
  20712966.414      394889.541 6    307706.870 9
  20707592.632     3451485.743 7   2689464.059 9
  22888309.654    -5426233.632 5  -4228212.339 6
  23021550.613    -3961075.541 5  -3086530.705 5
  24135728.981    -1667169.406 4  -1299091.542 4
 91  4  7 21 20 44.9990000  0  5 19 18  2 11 16
  20714161.086      401213.494 6    312634.635 9
  20713607.966     3483103.715 7   2714101.392 9
  22881638.074    -5461279.341 5  -4255520.551 6
  23018863.872    -3975231.138 5  -3097560.970 5
  24132198.025    -1685720.949 4  -1313547.214 4
 91  4  7 21 20 59.9990000  0  5 19 18  2 11 16
  20715373.444      407577.639 7    317593.707 9
  20719648.787     3514832.519 7   2738825.079 9
  22874975.184    -5496264.028 5  -4282781.225 4
  23016190.024    -3989260.938 5  -3108493.177 5
  24128686.557    -1704152.109 4  -1327909.123 2
 91  4  7 21 21 14.9990000  0  5 19 18  2 11 16
  20716592.700      413998.371 7    322596.877 9
  20725709.688     3546687.910 7   2763647.411 9
  22868332.981    -5531171.252 5  -4309981.577 6
  23013551.250    -4003148.472 5  -3119314.567 5
  24125216.162    -1722446.714 4  -1342164.655 5
 91  4  7 21 21 29.9990000  0  5 19 18  2 11 16
  20717830.243      420464.858 6    327635.702 9
  20731793.379     3578659.217 7   2788560.070 9
  22861706.972    -5566011.616 5  -4337129.783 6
  23010930.462    -4016904.268 5  -3130033.285 6
  24121751.461    -1740615.278 4  -1356321.908 3
 91  4  7 21 21 44.9990000  0  5 19 18  2 11 16
  20719066.587      426981.223 6    332713.398 9
  20737902.849     3610750.549 7   2813566.251 9
  22855088.750    -5600781.036 5  -4364222.717 6
  23008339.358    -4030524.025 5  -3140646.035 6
  24118315.539    -1758653.653 4  -1370377.782 5
 91  4  7 21 21 59.9990000  0  5 19 18  2 11 16
  20720322.418      433555.060 6    337835.868 9
  20744036.304     3642969.692 7   2838672.028 9
  22848488.519    -5635471.622 5  -4391254.249 6
  23005769.539    -4043999.583 5  -3151146.377 6
  24114910.195    -1776553.743 4  -1384325.855 2
 91  4  7 21 22 14.9990000  0  5 19 18  2 11 16
  20721574.951      440169.864 6    342990.259 9
  20750186.842     3675299.789 7   2863864.257 9
  22841898.483    -5670099.960 5  -4418237.243 6
  23003232.692    -4057347.391 5  -3161547.196 6
  24111531.832    -1794331.911 4  -1398178.934 5
 91  4  7 21 22 29.9990000  0  5 19 18  2 11 16
  20722839.175      446808.876 6    348163.518 9
  20756354.474     3707723.859 7   2889129.714 9
  22835318.639    -5704682.495 5  -4445184.563 5
  23000713.539    -4070583.887 5  -3171861.267 6
  24108172.360    -1812004.993 4  -1411950.138 6
 91  4  7 21 22 44.9990000  0  5 19 18  2 11 16
  20724112.095      453499.488 6    353376.989 9
  20762549.986     3740269.311 7   2914489.762 9
  22828751.385    -5739191.743 5  -4472074.789 6
  22998224.361    -4083681.395 5  -3182067.043 6
  24104830.273    -1829545.360 4  -1425617.899 4
 91  4  7 21 22 59.9990000  0  5 19 18  2 11 16
  20725390.410      460226.277 6    358618.647 9
  20768760.784     3772920.273 7   2939932.023 9
  22822200.320    -5773643.178 5  -4498919.941 6
  22995753.472    -4096655.248 5  -3192176.447 6
  24101509.173    -1846968.562 4  -1439194.395 4
 91  4  7 21 23 14.9990000  0  5 19 18  2 11 16
  20726681.316      467001.812 6    363898.285 9
  20774998.269     3805689.351 7   2965466.316 9
  22815653.452    -5808024.059 5  -4525710.147 6
  22993305.965    -4109492.593 5  -3202179.516 6
  24098220.449    -1864261.763 4  -1452669.611 3
 91  4  7 21 23 29.9990000  0  5 19 18  2 11 16
  20727977.920      473829.076 7    369218.235 9
  20781258.233     3838579.703 7   2991095.113 9
  22809126.669    -5842331.309 5  -4552442.952 6
  22990898.332    -4122190.216 5  -3212073.700 5
  24094960.508    -1881421.780 4  -1466040.982 3
 91  4  7 21 23 44.9990000  0  5 19 18  2 11 16
  20729293.108      480719.803 6    374587.641 9
  20787540.687     3871602.807 7   3016827.353 9
  22802608.284    -5876553.079 5  -4579109.151 6
  22988504.791    -4134736.183 5  -3221849.703 6
  24091713.755    -1898436.813 4  -1479299.416 5
 91  4  7 21 23 59.9990000  0  5 19 18  2 11 16
  20730609.199      487643.495 6    379982.733 9
  20793845.320     3904727.933 7   3042639.091 9
  22796109.383    -5910719.713 5  -4605732.398 6
  22986144.823    -4147160.607 5  -3231531.014 5
  24088501.476    -1915336.966 4  -1492468.372 5
 91  4  7 21 24 14.9990000  0  5 19 18  2 11 16
  20731938.779      494628.256 6    385425.406 9
  20800171.543     3937983.045 7   3068552.118 9
  22789628.167    -5944803.155 5  -4632290.809 6
  22983802.546    -4159435.317 5  -3241095.637 6
  24085317.382    -1932094.141 4  -1505525.876 2
 91  4  7 21 24 29.9990000  0  5 19 18  2 11 16
  20733278.550      501666.001 6    390909.367 9
  20806522.043     3971359.753 7   3094559.884 9
  22783153.852    -5978811.581 5  -4658790.780 6
  22981495.640    -4171568.165 5  -3250549.750 5
  24082151.573    -1948716.632 4  -1518478.410 4
 91  4  7 21 24 44.9990000  0  5 19 18  2 11 16
  20734620.419      508738.550 6    396420.457 9
  20812895.631     4004840.228 7   3120648.518 9
  22776690.327    -6012762.728 5  -4685246.104 6
  22979215.420    -4183576.931 5  -3259907.167 6
  24079011.249    -1965222.075 4  -1531339.784 5
 91  4  7 21 24 59.9990000  0  5 19 18  2 11 16
  20735973.383      515848.723 6    401960.852 9
  20819286.908     4038426.705 7   3146819.744 9
  22770240.892    -6046653.704 5  -4711654.543 7
  22976948.689    -4195458.657 5  -3269165.574 5
  24075893.405    -1981607.777 4  -1544107.824 5
 91  4  7 21 25 14.9990000  0  5 19 18  2 11 16
  20737339.237      523005.226 6    407537.354 9
  20825700.967     4072127.813 7   3173080.293 9
  22763806.743    -6080475.943 5  -4738009.430 5
  22974708.339    -4207204.408 5  -3278318.040 6
  24072798.950    -1997864.837 4  -1556775.623 6
 91  4  7 21 25 29.9990000  0  5 19 18  2 11 16
  20738715.584      530225.538 6    413163.579 9
  20832138.710     4105960.983 7   3199443.754 9
  22757389.387    -6114211.718 5  -4764296.938 6
  22972512.962    -4218796.420 5  -3287350.717 5
  24069734.770    -2013975.722 4  -1569329.500 5
 91  4  7 21 25 44.9990000  0  5 19 18  2 11 16
  20740093.431      537494.028 6    418827.342 9
  20838598.039     4139910.424 7   3225897.812 9
  22750979.224    -6147876.661 5  -4790529.246 6
  22970330.472    -4230250.191 5  -3296275.664 6
  24066691.277    -2029955.851 4  -1581781.539 6
 91  4  7 21 25 59.9990000  0  5 19 18  2 11 16
  20741485.069      544802.431 7    424522.200 9
  20845080.149     4173967.700 7   3252435.897 9
  22744587.951    -6181478.853 5  -4816712.671 6
  22968175.265    -4241573.802 5  -3305099.169 6
  24063680.159    -2045813.504 4  -1594138.062 5
 91  4  7 21 26 14.9990000  0  5 19 18  2 11 16
  20742889.297      552172.770 6    430265.333 9
  20851583.850     4208154.947 7   3279075.259 9
  22738206.567    -6214996.227 5  -4842829.985 5
  22966052.433    -4252744.941 5  -3313803.902 5
  24060678.639    -2061526.499 4  -1606381.964 5
 91  4  7 21 26 29.9990000  0  5 19 18  2 11 16
  20744302.817      559591.356 6    436046.054 9
  20858113.028     4242457.982 7   3305804.842 9
  22731844.074    -6248442.526 5  -4868891.917 7
  22963951.488    -4263777.213 5  -3322400.409 5
  24057718.188    -2077108.421 4  -1618523.683 5
 91  4  7 21 26 44.9990000  0  5 19 18  2 11 16
  20745719.037      567051.960 6    441859.512 9
  20864662.893     4276870.417 7   3332619.674 9
  22725491.772    -6281823.859 5  -4894903.245 6
  22961876.622    -4274676.537 5  -3330893.334 5
  24054786.817    -2092565.238 4  -1630567.947 5
 91  4  7 21 26 59.9990000  0  5 19 18  2 11 16
  20747149.348      574565.836 6    447714.484 9
  20871231.046     4311403.595 7   3359528.598 9
  22719152.356    -6315128.777 5  -4920855.026 6
  22959828.442    -4285431.438 5  -3339273.701 6
  24051862.344    -2107885.516 4  -1642505.758 6
 91  4  7 21 27 14.9990000  0  5 19 18  2 11 16
  20748590.449      582123.607 6    453603.656 9
  20877824.981     4346048.005 7   3386524.189 9
  22712827.337    -6348366.391 5  -4946754.338 7
  22957808.741    -4296050.860 5  -3347548.534 5
  24048968.147    -2123078.734 4  -1654344.595 6
 91  4  7 21 27 29.9990000  0  5 19 18  2 11 16
  20750035.449      589723.790 6    459525.885 9
  20884438.103     4380802.176 7   3413605.313 9
  22706517.906    -6381538.194 5  -4972602.379 6
  22955809.125    -4306536.192 5  -3355718.860 5
  24046098.834    -2138146.235 4  -1666085.479 5
 91  4  7 21 27 44.9990000  0  5 19 18  2 11 16
  20751486.146      597362.676 6    465478.267 9
  20891071.612     4415662.030 7   3440768.782 9
  22700213.870    -6414647.919 5  -4998402.049 6
  22953838.288    -4316890.897 5  -3363787.413 6
  24043261.298    -2153091.427 4  -1677731.075 4
 91  4  7 21 27 59.9990000  0  5 19 18  2 11 16
  20752950.931      605053.683 6    471471.264 9
  20897727.605     4450640.822 7   3468024.935 9
  22693929.318    -6447682.274 5  -5024143.023 6
  22951899.229    -4327101.613 5  -3371743.730 6
  24040444.148    -2167901.023 4  -1689270.997 5
 91  4  7 21 28 14.9990000  0  5 19 18  2 11 16
  20754424.113      612789.013 6    477498.797 9
  20904405.183     4485730.525 7   3495367.513 9
  22687650.167    -6480648.876 5  -5049831.162 6
  22949982.658    -4337175.754 5  -3379593.652 6
  24037650.381    -2182582.637 4  -1700711.149 4
 91  4  7 21 28 29.9990000  0  5 19 18  2 11 16
  20755904.485      620572.786 6    483564.077 9
  20911107.040     4520935.415 7   3522799.840 9
  22681397.693    -6513543.133 5  -5075462.946 6
  22948095.762    -4347108.900 5  -3387333.710 7
  24034876.101    -2197131.947 4  -1712048.280 6
 91  4  7 21 28 44.9990000  0  5 19 18  2 11 16
  20757389.660      628385.757 6    489652.112 9
  20917823.890     4556236.131 7   3550306.843 9
  22675142.527    -6546384.379 5  -5101053.414 7
  22946224.161    -4356920.172 5  -3394978.804 6
  24032129.101    -2211568.368 4  -1723297.453 5
 91  4  7 21 28 59.9990000  0  5 19 18  2 11 16
  20758888.023      636222.786 6    495758.885 9
  20924558.130     4591627.134 7   3577884.192 9
  22668908.341    -6579177.736 5  -5126606.574 6
  22944378.639    -4366614.602 5  -3402532.837 5
  24029400.991    -2225896.848 4  -1734462.466 5
 91  4  7 21 29 14.9990000  0  5 19 18  2 11 16
  20760380.989      644103.614 6    501899.792 9
  20931314.252     4627128.031 7   3605547.172 9
  22662675.355    -6611903.400 5  -5152106.966 6
  22942557.997    -4376172.017 5  -3409980.125 6
  24026704.959    -2240097.363 4  -1745527.770 4
 91  4  7 21 29 29.9990000  0  5 19 18  2 11 16
  20761887.144      652015.119 6    508064.594 9
  20938087.162     4662725.524 7   3633285.428 9
  22656468.155    -6644574.456 5  -5177564.839 7
  22940771.836    -4385605.508 5  -3417330.834 6
  24024022.114    -2254182.973 4  -1756503.535 5
 91  4  7 21 29 44.9990000  0  5 19 18  2 11 16
  20763401.997      659969.891 6    514263.129 9
  20944882.259     4698431.882 7   3661108.513 9
  22650252.558    -6677178.356 5  -5202970.350 6
  22939001.258    -4394902.333 5  -3424575.044 6
  24021369.253    -2268141.131 4  -1767379.970 4
 91  4  7 21 29 59.9990000  0  5 19 18  2 11 16
  20764927.041      667972.220 6    520498.704 9
  20951697.743     4734251.393 7   3689019.769 9
  22644069.038    -6709710.594 6  -5228320.053 7
  22937259.766    -4404058.031 5  -3431709.311 7
  24018738.275    -2281967.558 4  -1778153.805 4
 91  4  7 21 30 14.9990000  0  5 19 18  2 11 16
  20766453.883      676020.612 6    526770.176 9
  20958536.007     4770182.484 7   3717017.975 9
  22637887.617    -6742172.483 5  -5253614.930 7
  22935540.754    -4413073.738 5  -3438734.469 5
  24016132.478    -2295663.652 4  -1788826.031 4
 91  4  7 21 30 29.9990000  0  5 19 18  2 11 16
  20767998.415      684115.974 6    533078.244 9
  20965396.757     4806225.803 7   3745103.621 9
  22631722.686    -6774563.153 6  -5278854.312 7
  22933846.630    -4421948.413 5  -3445649.748 6
  24013548.568    -2309228.176 4  -1799395.742 5
 91  4  7 21 30 44.9990000  0  5 19 18  2 11 16
  20769545.045      692261.134 6    539425.125 9
  20972273.696     4842384.159 7   3773278.914 9
  22625573.941    -6806879.808 6  -5304036.003 7
  22932189.374    -4430679.080 5  -3452452.801 6
  24010995.535    -2322658.335 4  -1809860.786 6
 91  4  7 21 30 59.9990000  0  5 19 18  2 11 16
  20771103.066      700440.329 6    545798.527 9
  20979175.218     4878641.399 7   3801531.257 9
  22619438.688    -6839137.987 6  -5329172.141 7
  22930555.209    -4439281.274 5  -3459155.758 5
  24008462.287    -2335969.779 4  -1820233.284 6
 91  4  7 21 31 14.9990000  0  5 19 18  2 11 16
  20772664.385      708650.692 6    552196.205 9
  20986093.230     4914994.729 7   3829858.470 9
  22613307.035    -6871340.560 6  -5354264.948 8
  22928935.728    -4447757.738 5  -3465760.731 6
  24005953.024    -2349165.350 4  -1830515.522 5
 91  4  7 21 31 29.9990000  0  5 19 18  2 11 16
  20774236.497      716905.454 6    558628.483 9
  20993033.426     4951457.123 7   3858270.669 9
  22607189.770    -6903474.188 5  -5379304.040 6
  22927351.323    -4456095.052 5  -3472257.279 6
  24003467.145    -2362231.685 4  -1840697.055 4
 91  4  7 21 31 44.9990000  0  5 19 18  2 11 16
  20775814.904      725209.016 6    565098.793 9
  20999991.308     4988032.672 7   3886771.048 9
  22601093.789    -6935534.528 6  -5404286.007 6
  22925790.305    -4464288.679 5  -3478641.875 6
  24000995.954    -2375164.418 3  -1850774.499 5
 91  4  7 21 31 59.9990000  0  5 19 18  2 11 16
  20777413.994      733591.673 6    571630.734 9
  21006978.571     5024751.481 7   3915383.052 9
  22595008.301    -6967491.235 6  -5429187.228 7
  22924267.062    -4472308.099 6  -3484890.715 6
  23998569.436    -2387933.259 3  -1860724.226 5
 91  4  7 21 32 14.9990000  0  5 19 18  2 11 16
  20779015.488      742020.592 6    578198.721 9
  21013987.420     5061580.407 7   3944080.865 9
  22588944.101    -6999376.983 6  -5454033.162 7
  22922773.795    -4480186.010 6  -3491029.276 6
  23996162.401    -2400570.962 3  -1870571.773 6
 91  4  7 21 32 29.9990000  0  5 19 18  2 11 16
  20780622.976      750481.172 6    584791.373 9
  21021014.257     5098504.958 7   3972853.182 9
  22582887.694    -7031206.316 6  -5478835.130 7
  22921292.520    -4487936.771 5  -3497068.797 7
  23993773.955    -2413091.871 3  -1880328.269 4
 91  4  7 21 32 44.9990000  0  5 19 18  2 11 16
  20782243.953      758983.969 6    591416.929 9
  21028060.275     5135535.532 7   4001708.110 9
  22576840.277    -7062968.590 6  -5503584.857 7
  22919840.623    -4495549.723 5  -3503000.912 6
  23991428.680    -2425485.410 3  -1889985.569 5
 91  4  7 21 32 59.9990000  0  5 19 18  2 11 16
  20783873.022      767538.135 6    598082.516 9
  21035128.782     5172681.243 7   4030652.762 9
  22570809.953    -7094654.662 6  -5528275.180 6
  22918424.407    -4503015.569 6  -3508818.370 5
  23989095.695    -2437742.420 4  -1899536.482 4
 91  4  7 21 33 14.9990000  0  5 19 18  2 11 16
  20785506.594      776142.416 6    604787.155 9
  21042219.473     5209940.370 7   4059685.793 9
  22564799.413    -7126265.810 6  -5552907.155 6
  22917032.167    -4510335.569 6  -3514522.224 6
  23986779.798    -2449864.215 3  -1908981.992 4
 91  4  7 21 33 29.9990000  0  5 19 18  2 11 16
  20787151.852      784802.612 6    611535.352 9
  21049332.051     5247318.657 7   4088811.676 9
  22558796.372    -7157796.031 6  -5577476.062 7
  22915666.613    -4517503.479 5  -3520107.556 6
  23984507.972    -2461844.685 3  -1918317.383 5
 91  4  7 21 33 44.9990000  0  5 19 18  2 11 16
  20788813.602      793510.549 6    618320.756 9
  21056465.914     5284807.694 7   4118023.845 9
  22552810.712    -7189253.340 6  -5601988.153 7
  22914331.637    -4524527.302 5  -3525580.605 6
  23982253.234    -2473692.101 3  -1927549.114 6
 91  4  7 21 33 59.9990000  0  5 19 18  2 11 16
  20790479.849      802253.317 6    625133.314 9
  21063619.858     5322394.550 7   4147312.248 9
  22546840.949    -7220650.706 6  -5626453.524 6
  22913020.345    -4531419.708 6  -3530951.252 6
  23980012.281    -2485419.019 3  -1936686.955 5
 91  4  7 21 34 14.9990000  0  5 19 18  2 11 16
  20792149.093      811047.340 6    631985.787 9
  21070792.992     5360095.202 7   4176689.313 9
  22540872.678    -7251971.597 6  -5650859.317 7
  22911733.936    -4538164.239 6  -3536206.671 6
  23977812.707    -2497009.287 3  -1945718.309 3
 91  4  7 21 34 29.9990000  0  5 19 18  2 11 16
  20793835.129      819876.958 6    638866.003 9
  21077988.912     5397893.896 7   4206142.784 9
  22534930.194    -7283231.607 6  -5675217.659 7
  22910479.305    -4544776.389 6  -3541358.952 6
  23975626.020    -2508478.318 3  -1954655.180 5
 91  4  7 21 34 44.9990000  0  5 19 18  2 11 16
  20795517.561      828747.836 6    645778.374 9
  21085196.821     5435796.502 7   4235677.223 9
  22528992.504    -7314424.955 6  -5699524.075 7
  22909241.461    -4551250.195 6  -3546403.427 6
  23973472.009    -2519820.349 3  -1963493.119 5
 91  4  7 21 34 59.9990000  0  5 19 18  2 11 16
  20797215.886      837662.302 6    652724.716 9
  21092435.311     5473804.754 7   4265293.982 9
  22523068.906    -7345549.419 6  -5723776.814 7
  22908036.296    -4557583.381 6  -3551338.322 7
  23971339.885    -2531033.018 3  -1972230.245 5
 91  4  7 21 35 14.9990000  0  5 19 18  2 11 16
  20798919.306      846609.609 6    659696.639 9
  21099683.093     5511907.765 7   4294984.575 9
  22517154.599    -7376615.675 6  -5747984.185 6
  22906855.113    -4563786.400 6  -3556171.805 5
  23969225.150    -2542126.850 3  -1980874.766 5
 91  4  7 21 35 29.9990000  0  5 19 18  2 11 16
  20800632.922      855626.652 6    666722.900 9
  21106959.057     5550142.290 7   4324777.650 9
  22511261.879    -7407586.892 6  -5772117.496 7
  22905710.208    -4569822.206 5  -3560874.960 5
  23967148.788    -2553064.944 3  -1989397.944 4
 91  4  7 21 35 44.9990000  0  5 19 18  2 11 16
  20802361.824      864706.409 6    673798.034 9
  21114257.205     5588501.153 7   4354667.610 9
  22505386.246    -7438469.937 6  -5796182.109 6
  22904591.680    -4575697.678 6  -3565453.218 6
  23965089.514    -2563854.574 3  -1997805.413 4
 91  4  7 21 35 59.9990000  0  5 19 18  2 11 16
  20804093.126      873818.186 7    680898.123 9
  21121576.036     5626953.276 7   4384630.241 9
  22499522.603    -7469295.367 6  -5820201.835 7
  22903494.742    -4581443.391 6  -3569930.352 6
  23963059.918    -2574526.308 3  -2006121.019 4
 91  4  7 21 36 14.9990000  0  5 19 18  2 11 16
  20805836.420      882975.023 6    688033.323 9
  21128912.556     5665511.841 7   4414675.827 9
  22493665.860    -7500050.069 6  -5844166.440 7
  22902432.578    -4587046.089 6  -3574296.042 6
  23961057.004    -2585067.155 3  -2014334.637 4
 91  4  7 21 36 29.9990000  0  5 19 18  2 11 16
  20807589.308      892166.177 6    695195.262 9
  21136270.663     5704165.998 7   4444795.889 9
  22487827.702    -7530744.703 6  -5868084.245 7
  22901390.795    -4592516.382 6  -3578558.569 6
  23959070.881    -2595487.473 3  -2022454.351 5
 91  4  7 21 36 44.9990000  0  5 19 18  2 11 16
  20809340.393      901377.040 6    702372.556 9
  21143638.664     5742900.557 7   4474978.593 9
  22481992.541    -7561393.989 6  -5891966.702 7
  22900372.702    -4597868.866 6  -3582729.275 6
  23957110.236    -2605802.027 3  -2030491.629 5
 91  4  7 21 36 59.9990000  0  5 19 18  2 11 16
  20811106.469      910626.156 6    709579.665 9
  21151030.345     5781734.049 7   4505238.400 9
  22476172.968    -7591979.217 6  -5915799.264 6
  22899383.985    -4603084.732 6  -3586793.548 5
  23955171.181    -2615992.115 4  -2038431.958 5
 91  4  7 21 37 14.9990000  0  5 19 18  2 11 16
  20812869.551      919927.559 6    716827.515 9
  21158442.116     5820680.347 7   4535586.098 9
  22470368.690    -7622486.244 6  -5939570.870 7
  22898411.459    -4608149.890 6  -3590740.369 6
  23953264.801    -2626043.801 4  -2046264.425 4
 91  4  7 21 37 29.9990000  0  5 19 18  2 11 16
  20814646.721      929270.949 6    724108.076 9
  21165871.572     5859728.795 7   4566013.404 9
  22464573.699    -7652925.534 6  -5963289.700 7
  22897480.005    -4613074.513 6  -3594577.688 6
  23951374.310    -2635967.339 4  -2053997.014 5
 91  4  7 21 37 44.9990000  0  5 19 18  2 11 16
  20816437.981      938675.059 6    731435.948 9
  21173324.111     5898898.000 7   4596534.804 9
  22458803.593    -7683278.355 6  -5986941.153 6
  22896571.634    -4617839.804 6  -3598290.862 6
  23949506.002    -2645744.168 4  -2061615.320 2
 91  4  7 21 37 59.9990000  0  5 19 18  2 11 16
  20818239.734      948125.041 6    738799.573 9
  21180799.736     5938172.762 7   4627138.455 9
  22453034.389    -7713559.610 6  -6010536.838 6
  22895691.144    -4622460.620 6  -3601891.459 6
  23947673.668    -2655389.054 4  -2069130.828 5
 91  4  7 21 38 14.9990000  0  5 19 18  2 11 16
  20820042.385      957626.151 6    746203.045 9
  21188292.149     5977558.283 7   4657828.408 9
  22447290.964    -7743763.613 6  -6034072.319 7
  22894841.829    -4626931.153 6  -3605374.927 6
  23945865.324    -2664896.480 4  -2076539.209 2
 91  4  7 21 38 29.9990000  0  5 19 18  2 11 16
  20821854.328      967144.230 6    753619.731 9
  21195805.850     6017020.219 7   4688577.908 9
  22441548.141    -7773924.455 6  -6057574.177 7
  22894015.003    -4631285.558 6  -3608767.930 7
  23944077.061    -2674300.530 4  -2083866.995 5
 91  4  7 21 38 44.9990000  0  5 19 18  2 11 16
  20823684.263      976732.468 6    761091.076 9
  21203337.835     6056611.443 7   4719428.148 9
  22435831.397    -7803989.224 6  -6081001.181 7
  22893217.554    -4635470.758 5  -3612029.104 7
  23942320.277    -2683548.188 4  -2091072.939 5
 91  4  7 21 38 59.9990000  0  5 19 18  2 11 16
  20825512.396      986354.957 6    768589.122 9
  21210889.906     6096295.958 7   4750351.082 9
  22430120.949    -7833993.722 6  -6104381.205 7
  22892449.788    -4639522.397 6  -3615186.171 6
  23940578.484    -2692675.193 4  -2098184.918 4
 91  4  7 21 39 15.0000000  0  5 19 18  2 11 16
  20827349.226      996011.962 6    776114.062 9
  21218460.267     6136075.816 7   4781348.313 9
  22424417.697    -7863940.237 6  -6127716.056 7
  22891697.307    -4643440.951 6  -3618239.541 6
  23938864.269    -2701682.567 4  -2105203.675 2
 91  4  7 21 39 30.0000000  0  5 19 18  2 11 16
  20829194.447     1005715.670 6    783675.393 9
  21226048.014     6175959.108 7   4812426.141 9
  22418736.330    -7893811.061 6  -6150991.920 7
  22890982.001    -4647212.152 6  -3621178.083 6
  23937173.439    -2710555.295 4  -2112117.475 4
